Home   Weather   Winder   Past weeks

Flag for USA Past Weather in Winder, Georgia, USA — Yesterday and Last 2 Weeks

Now
54 °F

Sunny.


Feels Like: 54 °F
Forecast: 40 / 56 °F
Wind: No wind

Location: Winder-Barrow Airport

Current Time: Dec 3, 2016 at 12:52:41 pm

Latest Report: Dec 3, 2016 at 12:15 pm


Visibility: 10 mi

Pressure: 30.25 "Hg

Humidity: 44%

Dew Point: 32 °F

Location of WinderLocation

Past Weather in Winder — Graph

°F

Winder Temperature Yesterday

Maximum temperature yesterday: 63 °F (at 1:35 pm)
Minimum temperature yesterday: 36 °F (at 7:35 am)
Average temperature yesterday: 49 °F

High & Low Weather Summary for the Past Weeks

 TemperatureHumidityPressure
High79 °F (Nov 18, 1:55 pm)100% (Nov 29, 8:55 pm)30.35 "Hg (Nov 29, 8:55 pm)
Low32 °F (Nov 22, 6:55 am)4% (Nov 21, 1:55 pm)29.71 "Hg (Nov 30, 2:35 pm)
Average54 °F56%30.15 "Hg
* Reported Nov 18 11:15 am — Dec 3 11:35 am, Winder, Weather by CustomWeather, © 2016

Note: Actual official high and low records may vary slightly from our data, if they occured in-between our weather recording intervals... More about our weather records

Advertising

Winder Weather History for the Previous 24 Hours

Scroll right to see more
 ConditionsComfort  
Time TempWeatherWind HumidityBarometerVisibility
11:35 am
Sat, Dec 3
52 °FSunny.3 mph47%30.29 "Hg10 mi
11:15 am52 °FSunny.No wind47%30.30 "Hg10 mi
10:55 am50 °FSunny.No wind50%30.30 "Hg10 mi
10:35 am48 °FSunny.No wind54%30.29 "Hg10 mi
10:15 am46 °FSunny.6 mph57%30.30 "Hg10 mi
9:55 am46 °FSunny.No wind57%30.29 "Hg10 mi
9:35 am46 °FSunny.6 mph57%30.29 "Hg10 mi
9:15 am46 °FSunny.5 mph57%30.30 "Hg10 mi
8:55 am46 °FSunny.7 mph57%30.29 "Hg10 mi
8:35 am45 °FSunny.6 mph66%30.29 "Hg10 mi
8:15 am43 °FSunny.5 mph71%30.29 "Hg10 mi
7:55 am41 °FSunny.No wind76%30.28 "Hg10 mi
7:35 am39 °FSunny.No wind75%30.28 "Hg10 mi
7:15 am41 °FClear.No wind70%30.29 "Hg10 mi
6:55 am41 °FClear.No wind70%30.27 "Hg10 mi
6:35 am43 °FClear.3 mph61%30.27 "Hg10 mi
6:15 am43 °FClear.5 mph61%30.25 "Hg10 mi
5:55 am45 °FClear.7 mph57%30.25 "Hg10 mi
4:55 am45 °FClear.6 mph61%30.25 "Hg10 mi
4:15 am45 °FClear.6 mph61%30.25 "Hg10 mi
3:15 am48 °FClear.8 mph50%30.25 "Hg10 mi
2:55 am46 °FClear.9 mph57%30.25 "Hg10 mi
1:55 am45 °FClear.5 mph61%30.26 "Hg10 mi
1:15 am45 °FClear.3 mph61%30.24 "Hg10 mi
12:55 am46 °FClear.No wind57%30.25 "Hg10 mi
12:35 am46 °FClear.5 mph57%30.26 "Hg10 mi
12:15 am46 °FClear.5 mph57%30.27 "Hg10 mi
11:55 pm
Fri, Dec 2
46 °FClear.5 mph57%30.28 "Hg10 mi
10:35 pm50 °FClear.7 mph50%30.28 "Hg10 mi
10:15 pm48 °FClear.8 mph54%30.27 "Hg10 mi
9:55 pm46 °FClear.8 mph57%30.26 "Hg10 mi
9:15 pm48 °FClear.5 mph50%30.27 "Hg10 mi
8:15 pm52 °FClear.9 mph44%30.27 "Hg10 mi
7:55 pm52 °FClear.9 mph44%30.26 "Hg10 mi
7:35 pm52 °FClear.9 mph44%30.26 "Hg10 mi
7:15 pm52 °FClear.9 mph44%30.26 "Hg10 mi
6:55 pm54 °FClear.7 mph41%30.25 "Hg10 mi
6:15 pm54 °FClear.7 mph41%30.25 "Hg10 mi
5:55 pm54 °FClear.7 mph41%30.24 "Hg10 mi
5:35 pm59 °FClear.7 mph29%30.23 "Hg10 mi
5:15 pm59 °FSunny.8 mph27%30.22 "Hg10 mi
4:55 pm59 °FSunny.8 mph27%30.21 "Hg10 mi
4:35 pm61 °FSunny.13 mph25%30.20 "Hg10 mi
4:15 pm61 °FSunny.12 mph25%30.20 "Hg10 mi
3:55 pm63 °FSunny.12 mph24%30.20 "Hg10 mi
3:35 pm63 °FSunny.12 mph22%30.20 "Hg10 mi
3:15 pm63 °FSunny.14 mph22%30.19 "Hg10 mi
2:55 pm63 °FSunny.15 mph24%30.19 "Hg10 mi
2:35 pm63 °FSunny.13 mph24%30.20 "Hg10 mi
2:15 pm63 °FSunny.10 mph24%30.20 "Hg10 mi
1:55 pm63 °FSunny.15 mph24%30.20 "Hg10 mi
1:35 pm63 °FSunny.15 mph24%30.20 "Hg10 mi
1:15 pm61 °FSunny.10 mph27%30.22 "Hg10 mi
12:55 pm59 °FSunny.8 mph27%30.23 "Hg10 mi
12:15 pm59 °FSunny.12 mph29%30.24 "Hg10 mi
Weather by CustomWeather, © 2016

See weather overviewHow to use our weather pages